LKTB Weather Reports


Display with metric or nautical units.
time (UTC)temp
F
wind
direction
speed
MPH
gust
MPH
rain 1hr
in
rain 24hr
in
rain mn
in
humidity
%
barometer
mb
20260505160227 77 150 17.0 0.0 0.00 0.00 0.00 29 1005.0
20260505153231 79 170 15.0 0.0 0.00 0.00 0.00 22 1005.0
20260505152121 79 170 18.0 0.0 0.00 0.00 0.00 22
20260505150233 79 160 16.0 0.0 0.00 0.00 0.00 22 1005.0
20260505140233 77 160 16.0 0.0 0.00 0.00 0.00 22 1006.0
20260505130227 77 150 13.0 0.0 0.00 0.00 0.00 27 1007.0
20260505123224 77 160 13.0 0.0 0.00 0.00 0.00 27 1007.0
20260505122108 75 150 14.0 0.0 0.00 0.00 0.00 31
20260505120304 75 150 13.0 0.0 0.00 0.00 0.00 31 1008.0
20260505113223 75 160 13.0 0.0 0.00 0.00 0.00 31 1008.0
20260505112109 73 170 14.0 0.0 0.00 0.00 0.00 31
20260505110237 75 160 12.0 0.0 0.00 0.00 0.00 31 1008.0
20260505102109 72 150 12.0 0.0 0.00 0.00 0.00 35
20260505100227 72 160 12.0 0.0 0.00 0.00 0.00 35 1008.0
20260505093224 70 140 13.0 0.0 0.00 0.00 0.00 37 1009.0
20260505092106 68 150 12.0 0.0 0.00 0.00 0.00 40
20260505090226 68 130 10.0 0.0 0.00 0.00 0.00 40 1009.0
20260505083224 66 140 12.0 0.0 0.00 0.00 0.00 39 1009.0
20260505082108 64 130 12.0 0.0 0.00 0.00 0.00 42
20260505080231 64 130 8.0 0.0 0.00 0.00 0.00 42 1009.0
20260505073224 63 150 8.0 0.0 0.00 0.00 0.00 45 1009.0
20260505072107 63 160 12.0 0.0 0.00 0.00 0.00 42
20260505070232 63 140 12.0 0.0 0.00 0.00 0.00 42 1010.0
20260505063223 63 120 9.0 0.0 0.00 0.00 0.00 42 1010.0
20260505062108 61 90 7.0 0.0 0.00 0.00 0.00 44
20260505060225 61 90 9.0 0.0 0.00 0.00 0.00 44 1009.0
20260505053212 57 80 8.0 0.0 0.00 0.00 0.00 47 1009.0
20260505052106 54 70 9.0 0.0 0.00 0.00 0.00 50
20260505050231 54 80 7.0 0.0 0.00 0.00 0.00 50 1009.0
20260505040225 54 90 5.0 0.0 0.00 0.00 0.00 50 1009.0
20260505033217 55 80 7.0 0.0 0.00 0.00 0.00 47 1009.0
20260505032106 55 100 9.0 0.0 0.00 0.00 0.00 43
20260505030226 55 90 3.0 0.0 0.00 0.00 0.00 43 1010.0
20260505023217 57 90 6.0 0.0 0.00 0.00 0.00 41 1010.0
20260505022106 55 100 7.0 0.0 0.00 0.00 0.00 43
20260505020224 57 80 8.0 0.0 0.00 0.00 0.00 41 1010.0
20260505013217 57 100 5.0 0.0 0.00 0.00 0.00 44 1010.0
20260505012109 59 80 5.0 0.0 0.00 0.00 0.00 41
20260505010224 59 70 5.0 0.0 0.00 0.00 0.00 41 1010.0
20260505003217 63 90 6.0 0.0 0.00 0.00 0.00 36 1011.0
20260505002107 61 40 7.0 0.0 0.00 0.00 0.00 36
20260505000226 61 80 6.0 0.0 0.00 0.00 0.00 38 1011.0
20260504233217 63 90 9.0 0.0 0.00 0.00 0.00 36 1011.0
20260504232138 61 90 9.0 0.0 0.00 0.00 0.00 38
20260504230233 61 90 12.0 0.0 0.00 0.00 0.00 38 1011.0
20260504223223 61 90 12.0 0.0 0.00 0.00 0.00 38 1011.0
20260504222110 63 90 9.0 0.0 0.00 0.00 0.00 36
20260504220233 63 90 12.0 0.0 0.00 0.00 0.00 36 1011.0
20260504213217 63 80 9.0 0.0 0.00 0.00 0.00 36 1012.0
20260504212106 64 70 9.0 0.0 0.00 0.00 0.00 34
20260504210228 64 80 9.0 0.0 0.00 0.00 0.00 36 1012.0
20260504203216 64 80 9.0 0.0 0.00 0.00 0.00 36 1012.0
20260504202106 64 70 7.0 0.0 0.00 0.00 0.00 36
20260504200227 64 80 8.0 0.0 0.00 0.00 0.00 36 1012.0
20260504193217 66 70 7.0 0.0 0.00 0.00 0.00 34 1012.0
20260504192108 66 100 7.0 0.0 0.00 0.00 0.00 34
20260504190234 66 90 8.0 0.0 0.00 0.00 0.00 34 1012.0
20260504183224 68 90 8.0 0.0 0.00 0.00 0.00 34 1012.0
20260504182109 68 110 7.0 0.0 0.00 0.00 0.00 34
20260504180226 68 100 8.0 0.0 0.00 0.00 0.00 34 1012.0
20260504173223 70 140 5.0 0.0 0.00 0.00 0.00 32 1012.0
20260504172109 72 160 7.0 0.0 0.00 0.00 0.00 30
20260504170226 72 160 7.0 0.0 0.00 0.00 0.00 28 1012.0